Theta_e
321 319 312 309 310 308 308 308 307 311 317 318 317 318 320 320 321 320 318 319 318 317 322 323 321 322 319 314 315 315 313 313 313 314 315 315 316 317 318 317 317 319 318 318 321 321 320 318 319 319 318 317 315 314 315 314 313 315 317 315 316 322 325 325 329 336 336 331 328 325 323 323 325 325 323 321 319 322 329 333 338 343 346 347 347 348 348
321 319 312 309 310 309 308 308 307 311 317 319 318 320 321 320 321 319 318 319 317 318 321 322 326 330 321 314 315 314 311 314 313 313 314 315 315 318 319 316 316 316 317 320 319 317 319 318 317 320 319 316 315 315 317 318 318 318 318 317 317 320 325 328 332 337 337 335 334 329 325 326 326 326 326 321 318 323 328 335 343 345 344 345 344 345 348
321 319 312 309 310 309 308 308 307 310 316 319 318 320 321 320 319 317 316 318 317 317 318 317 323 329 323 316 316 315 313 313 314 313 314 314 314 318 320 316 315 318 318 320 319 317 318 318 318 320 320 318 316 316 317 318 320 322 322 321 319 319 325 332 334 332 328 328 331 327 324 326 324 323 322 318 318 325 331 335 336 335 338 341 343 347 349
321 319 312 309 310 309 309 309 307 308 314 317 318 319 321 321 321 321 320 317 315 315 313 313 318 324 325 320 314 314 315 313 313 314 314 315 315 316 318 316 317 321 321 322 323 321 320 321 323 322 322 323 318 315 318 318 318 322 320 318 324 329 330 333 337 334 327 329 332 329 327 327 322 320 320 319 321 328 335 339 336 335 339 342 345 348 347
321 319 313 309 310 310 309 309 307 308 312 315 317 318 320 323 323 325 326 320 316 316 315 314 315 317 321 319 313 315 316 315 316 316 315 316 316 315 316 315 318 321 321 322 324 325 325 325 325 323 323 326 321 314 317 317 316 320 315 313 326 335 328 326 331 331 329 332 330 325 324 323 320 319 319 320 326 332 333 334 336 339 340 341 344 345 345
322 320 314 309 310 310 310 309 309 308 310 313 316 316 320 323 322 322 324 321 317 320 320 319 318 317 320 319 315 316 317 316 317 316 315 316 316 318 318 315 316 319 322 325 323 324 328 325 324 325 323 325 326 319 317 317 315 318 317 315 323 329 322 319 323 325 327 329 324 320 321 320 319 320 319 318 326 335 335 335 339 341 339 340 344 344 344
321 321 315 310 310 310 310 310 309 308 310 311 314 317 318 321 322 322 324 322 320 322 323 320 319 321 327 326 318 315 316 316 314 314 317 318 317 318 319 316 315 316 324 331 324 321 325 320 318 323 322 322 324 323 321 318 314 317 320 317 318 321 322 322 322 321 323 325 325 323 321 319 320 321 320 320 324 333 341 341 340 343 343 342 342 343 344
321 321 316 310 310 310 310 311 309 309 311 310 312 316 318 321 323 323 325 326 324 324 322 319 320 321 323 323 317 314 315 315 313 313 315 319 318 318 318 317 317 316 322 327 320 317 322 319 313 317 321 321 321 322 321 318 316 322 324 319 317 316 318 325 328 323 321 323 327 329 324 321 321 321 324 326 326 331 343 344 340 343 343 341 341 344 346
321 322 318 311 309 310 309 310 310 310 311 311 313 316 319 323 323 323 327 329 327 326 319 317 322 322 319 321 321 320 317 313 314 314 313 315 318 318 318 318 319 320 321 320 316 314 318 318 314 314 316 315 315 318 318 315 317 323 322 320 322 321 319 327 334 329 322 321 324 330 328 323 322 322 327 332 328 326 336 339 338 342 343 341 343 345 345
321 322 319 312 309 310 310 310 310 310 311 312 315 316 318 322 322 323 328 327 325 327 321 317 320 318 316 320 322 320 317 312 313 317 315 313 316 317 316 316 319 322 319 317 315 313 313 315 314 312 313 312 312 314 315 315 317 321 322 321 324 326 322 323 330 330 323 320 324 330 329 325 325 324 326 332 332 330 336 337 334 337 340 341 343 343 341
321 321 320 314 309 310 310 310 310 310 310 311 313 315 317 320 321 323 327 326 321 320 322 322 323 319 314 316 317 316 316 313 314 320 318 313 314 315 315 315 318 321 317 314 315 313 313 315 313 312 312 313 314 315 315 316 316 317 321 322 324 329 328 323 326 328 322 322 327 332 330 328 329 326 325 331 334 334 336 334 330 332 335 338 340 340 337
320 321 321 315 310 309 310 310 310 310 310 311 311 313 313 317 323 324 326 328 324 320 321 320 318 316 313 314 315 314 315 315 314 317 316 313 313 314 313 314 317 318 316 314 315 315 314 314 316 316 314 312 315 314 314 318 318 314 316 320 325 333 331 326 327 325 322 328 331 329 328 330 331 327 324 329 331 331 334 333 329 330 334 336 338 337 335
320 321 322 317 311 309 309 310 310 309 310 310 311 311 311 315 323 326 325 328 327 325 325 318 313 313 313 314 314 313 314 314 314 314 314 313 313 314 314 314 314 315 315 315 316 316 316 319 322 320 317 320 323 317 316 322 321 315 316 317 320 327 328 327 327 321 318 327 331 330 330 329 328 327 323 324 326 328 336 340 332 329 332 335 335 334 333
320 320 322 318 312 309 309 310 310 310 310 309 310 311 310 313 321 325 325 327 326 321 320 319 317 317 315 313 314 314 314 314 313 313 314 313 314 314 314 314 315 315 315 315 316 317 319 327 331 325 323 330 329 318 318 322 319 319 322 317 316 325 329 326 325 320 319 324 328 329 327 322 322 325 321 320 320 320 332 343 336 328 330 332 331 332 331
321 320 321 319 313 310 310 309 310 310 310 309 309 311 311 310 316 322 322 325 327 322 318 319 321 320 316 313 315 316 318 319 317 315 315 314 314 315 315 314 315 316 316 315 319 323 325 330 333 327 324 325 321 316 321 323 318 317 317 313 314 321 323 321 323 323 325 329 328 325 323 323 326 326 321 320 318 315 325 340 340 330 327 329 330 331 330
321 320 321 318 313 310 310 310 309 310 311 310 309 311 312 310 311 317 318 321 325 323 318 318 318 317 316 315 315 316 320 326 323 319 319 319 315 314 316 316 315 317 317 315 320 328 331 328 327 325 321 319 318 317 320 323 321 318 317 319 324 324 322 326 330 327 327 332 330 325 325 327 328 327 321 318 318 319 324 336 340 332 327 328 330 330 328
321 321 320 318 314 310 309 310 310 309 310 311 309 311 313 310 310 313 315 318 320 319 317 317 318 317 317 318 318 317 318 322 320 318 322 323 316 314 316 315 315 316 316 320 326 332 332 325 322 323 321 318 318 318 317 319 323 322 324 330 335 332 328 329 329 328 330 332 326 323 326 326 325 327 324 318 317 321 327 333 335 332 327 328 329 328 328
321 321 320 317 314 311 309 310 310 309 310 310 310 311 313 312 310 311 313 316 318 317 317 317 317 317 317 318 319 316 316 317 316 317 321 319 316 318 317 315 317 316 316 327 335 333 328 322 320 323 322 317 315 315 316 317 318 318 321 326 330 332 329 324 322 324 328 327 321 320 325 325 322 323 322 318 317 322 329 332 331 329 327 328 328 327 327
321 321 320 317 314 311 310 310 310 310 310 310 310 311 314 313 310 310 312 315 317 317 317 317 318 317 317 317 317 316 316 316 316 322 327 321 317 319 317 315 318 316 317 329 334 327 323 322 319 321 324 321 318 315 314 314 315 316 317 319 323 326 324 323 322 317 318 324 324 323 324 321 318 320 320 317 318 325 329 327 325 327 328 328 327 327 326
321 320 320 318 314 311 310 310 310 310 310 310 310 310 313 313 311 309 310 312 314 316 316 316 317 318 317 317 317 317 318 317 318 324 329 324 318 318 319 319 319 317 319 327 328 321 322 324 320 319 323 324 320 315 315 318 318 315 314 316 319 319 318 322 322 316 317 325 326 323 323 320 318 321 321 318 319 323 324 321 322 328 329 327 327 326 325
322 321 320 319 315 311 310 310 310 310 310 310 310 310 311 311 310 310 310 310 312 316 316 316 317 317 317 316 317 317 318 318 317 319 322 321 318 320 325 324 321 318 320 324 323 320 321 324 322 320 320 321 318 315 319 326 324 315 312 314 317 317 318 323 324 321 322 327 325 321 321 319 318 320 322 320 320 320 319 320 324 328 328 327 327 326 325
321 321 321 320 316 311 310 310 310 311 310 310 310 310 310 310 310 310 310 310 311 314 316 315 316 318 317 316 316 317 316 317 317 317 319 320 318 319 322 321 319 318 318 320 322 321 321 323 323 322 321 321 321 318 318 322 324 319 313 313 316 318 318 319 321 321 321 323 325 322 319 317 318 319 320 320 319 318 318 320 324 328 329 328 327 326 326
321 321 321 320 316 312 310 310 310 311 311 310 310 310 310 310 310 310 310 310 311 314 314 315 317 319 319 316 316 317 316 316 316 316 317 318 317 318 319 318 319 320 318 319 321 321 322 323 321 321 322 321 322 322 317 316 323 325 319 315 315 316 315 315 317 318 317 316 318 318 317 317 318 318 318 319 318 318 319 319 322 326 328 328 327 326 326
322 321 321 320 317 312 310 310 310 310 311 311 311 311 311 310 310 310 310 310 311 311 313 315 318 320 319 317 316 316 316 316 316 316 316 317 317 319 319 318 319 320 318 319 319 318 320 320 317 318 321 319 319 324 321 318 322 323 320 321 320 317 317 319 320 319 318 317 317 317 317 318 318 317 318 318 317 319 320 320 321 323 324 327 328 327 326
321 320 320 320 317 312 311 310 310 310 311 311 311 311 310 309 310 310 310 311 311 313 316 319 320 320 319 319 317 317 317 316 316 317 318 318 317 317 319 320 320 320 319 319 319 318 319 320 318 322 323 317 318 323 322 319 319 317 319 327 326 319 318 321 322 321 320 318 317 317 317 317 317 317 318 317 317 318 319 320 321 321 322 325 326 327 327
320 319 320 320 317 313 311 311 310 310 311 311 311 311 309 309 309 309 310 311 312 315 320 322 321 319 319 319 319 318 318 317 317 316 318 319 317 316 318 320 320 320 319 319 319 319 318 318 320 326 325 318 318 321 321 320 318 316 320 326 323 318 318 319 320 324 324 319 316 317 318 319 318 317 317 317 316 317 318 319 320 321 322 323 324 326 326
320 319 320 320 318 313 311 311 310 310 310 312 311 310 309 309 309 310 312 314 316 318 321 322 320 319 320 320 319 319 317 316 317 317 317 318 317 316 317 319 319 319 319 319 318 318 318 318 320 323 322 318 318 319 318 318 318 319 324 323 318 318 321 318 318 324 327 322 318 317 320 321 319 317 317 317 316 316 317 318 318 319 320 321 322 324 325
318 317 318 320 318 313 310 311 310 309 310 311 311 310 310 310 310 312 313 315 317 317 317 318 319 318 320 321 320 320 318 317 317 318 318 318 318 317 317 317 317 318 318 318 318 318 319 320 321 320 319 319 320 319 317 317 318 322 326 323 318 318 320 319 320 325 324 321 318 318 319 320 319 317 317 318 317 316 316 317 317 317 317 318 319 321 322
317 316 317 319 318 313 311 311 311 309 310 311 310 310 312 311 312 314 315 314 314 313 313 316 318 318 319 321 321 320 319 318 318 318 319 318 318 317 317 317 318 318 318 318 319 319 319 320 320 320 320 320 321 321 320 319 322 325 324 321 319 320 320 319 320 321 320 319 319 319 319 319 319 318 318 318 318 317 317 317 317 316 316 316 317 318 319
316 316 317 319 318 313 311 311 310 309 310 310 309 311 314 314 315 316 316 314 312 312 312 315 318 318 318 320 321 321 319 319 318 318 319 319 318 318 317 317 318 318 318 319 319 319 320 320 319 319 320 318 318 320 321 321 323 325 322 319 320 321 320 319 319 319 319 320 320 320 320 320 319 319 319 319 318 318 318 318 317 317 316 316 316 316 316
316 316 317 319 317 313 310 311 310 309 310 310 309 313 318 320 319 319 317 313 312 313 313 314 316 317 318 320 321 321 320 320 319 319 319 318 318 318 317 317 318 319 319 319 319 319 320 321 319 319 320 318 318 321 322 321 324 325 321 319 321 321 319 320 320 319 319 319 319 319 320 319 319 319 319 319 319 318 318 318 318 317 317 317 317 316 316
318 318 318 318 316 312 311 311 310 309 310 310 311 315 319 321 319 318 316 313 312 313 314 314 316 317 319 320 321 321 321 321 320 319 319 318 318 318 318 318 319 319 319 319 320 320 320 320 319 319 320 319 321 324 323 322 325 324 320 318 320 319 319 319 319 319 319 319 318 319 319 318 319 319 318 318 318 318 318 318 318 318 318 317 317 317 316
318 319 319 317 314 311 311 311 310 310 310 310 311 313 315 315 315 315 314 313 313 314 314 316 319 319 318 319 321 322 321 321 321 320 320 320 319 319 319 319 320 320 320 320 320 320 320 320 319 319 320 320 321 323 324 324 323 320 318 318 319 318 318 319 318 318 318 318 318 318 318 317 318 318 317 317 317 317 317 317 317 317 317 317 317 317 317
317 318 318 315 312 311 311 310 310 310 310 311 312 314 316 317 316 316 315 313 313 313 314 317 322 324 321 319 321 322 321 320 321 321 321 322 321 320 320 321 320 319 319 320 319 319 320 319 319 320 320 318 318 320 324 323 320 317 317 318 318 318 318 318 318 318 317 317 317 317 317 317 317 316 316 316 315 315 315 315 315 316 316 316 317 317 317
316 318 316 313 310 311 310 310 310 310 311 314 316 317 318 320 319 318 316 314 312 313 314 316 321 326 325 322 323 324 322 320 320 320 321 322 322 320 320 320 320 320 320 319 318 318 318 318 319 320 319 318 320 324 324 321 317 317 318 318 317 318 318 317 317 317 317 316 317 316 315 315 314 313 313 313 312 312 313 313 313 314 314 315 316 316 316
316 316 314 311 310 311 310 310 311 311 313 317 319 318 318 318 317 315 314 313 313 315 317 318 319 322 324 325 325 322 320 319 319 319 320 321 321 320 319 320 321 320 319 318 318 318 317 318 320 320 317 318 322 324 321 318 317 317 317 317 317 317 317 316 316 316 316 316 316 315 314 313 312 312 312 311 311 311 311 311 311 312 312 313 313 314 315
315 313 311 310 310 311 311 312 311 311 315 318 318 317 316 315 314 314 315 316 316 315 317 320 321 319 320 323 323 320 320 320 319 319 320 321 321 320 319 320 321 320 319 319 320 319 318 318 319 320 320 320 321 319 317 317 318 316 316 317 317 316 316 316 315 315 315 314 314 313 312 311 311 311 311 310 310 310 310 310 310 310 311 311 312 312 313
313 311 310 310 311 313 315 314 312 313 316 318 318 317 315 314 316 318 319 319 319 317 316 320 322 319 319 321 321 321 321 319 318 318 320 320 320 319 319 320 320 319 319 320 319 318 318 318 318 320 320 318 317 317 317 317 317 317 317 317 317 316 315 315 314 314 314 313 312 311 311 311 311 311 310 310 309 309 309 308 309 309 310 311 312 312 313
312 310 310 312 315 318 319 318 317 317 319 319 318 318 317 318 320 322 320 319 319 318 316 317 318 318 320 322 321 321 321 319 319 321 321 320 319 318 319 320 319 317 319 320 317 317 321 320 317 319 320 316 314 316 318 317 316 317 317 316 315 315 315 314 313 313 312 312 312 312 312 312 312 311 311 310 310 309 309 309 309 309 309 310 311 312 312
310 310 311 315 319 320 320 319 318 318 319 318 318 319 320 320 321 322 321 321 321 320 319 318 318 317 318 320 321 321 321 320 322 323 323 321 318 316 317 319 317 316 320 321 316 316 321 321 318 320 323 319 315 315 317 317 317 317 316 315 315 314 313 313 313 313 312 312 313 312 312 312 312 311 310 310 310 310 310 310 309 309 309 310 311 312 313
310 311 314 318 320 320 319 317 316 316 317 319 321 321 321 320 320 320 321 323 324 322 320 320 320 318 318 319 320 321 320 320 320 320 321 320 317 315 317 317 314 315 322 323 317 316 319 320 319 321 321 317 315 315 316 316 316 316 314 314 314 314 314 313 313 313 313 312 312 312 311 311 310 310 309 309 309 310 310 310 310 310 309 309 310 311 312
311 313 316 319 320 320 318 317 317 318 319 321 322 320 317 317 319 320 321 322 324 323 321 321 321 320 320 319 319 320 321 320 319 319 320 319 316 317 320 318 315 317 321 320 316 317 319 320 323 325 319 313 313 316 315 315 315 315 313 313 314 314 313 313 312 312 311 311 310 310 309 309 309 309 309 309 309 309 309 310 310 310 310 309 309 310 312
315 317 318 320 320 319 318 319 319 319 319 319 320 319 318 317 319 320 321 321 322 321 321 321 321 321 321 321 320 320 320 320 319 319 318 317 316 318 321 320 319 318 317 315 316 319 321 322 327 326 317 312 314 315 314 314 314 313 313 313 313 312 312 312 311 311 310 309 309 309 309 308 308 308 308 308 308 309 309 309 309 309 309 309 309 310 312
319 319 318 318 317 317 318 318 317 318 318 318 317 318 318 319 320 322 324 325 323 322 321 321 321 321 321 321 320 320 320 319 319 319 317 316 317 319 321 323 321 316 313 315 317 318 318 321 321 317 313 313 314 314 313 313 313 312 312 311 311 311 310 310 309 309 308 308 308 307 307 307 308 308 308 308 308 308 309 309 309 309 309 309 309 310 311
319 318 317 317 317 317 316 316 316 318 320 318 318 320 322 324 326 327 326 324 322 322 322 321 321 321 321 319 319 320 319 318 319 319 316 315 318 319 319 321 319 314 313 317 318 315 316 319 315 310 311 314 314 312 312 312 310 310 310 310 309 309 308 307 307 306 306 306 306 306 306 307 307 307 308 308 308 308 308 308 309 309 308 308 309 310 311
319 317 317 319 319 316 314 314 317 320 320 317 317 319 321 322 324 324 321 319 320 321 322 321 321 321 319 318 318 319 318 318 319 318 315 316 319 319 316 315 314 313 314 316 317 317 320 319 312 308 311 314 312 310 310 310 309 309 309 308 307 307 306 305 306 306 306 306 306 306 307 307 307 307 308 308 308 308 308 308 308 308 308 308 309 310 311
318 317 317 318 318 315 312 313 316 318 316 315 316 317 317 317 318 319 319 320 321 321 321 321 321 320 319 318 318 319 318 318 319 318 316 316 318 317 313 313 315 316 314 314 316 321 322 315 309 309 312 312 310 310 309 308 307 307 306 305 306 306 305 306 306 306 306 307 307 307 307 307 308 308 308 308 308 308 308 308 308 308 308 309 309 309 310
318 318 318 318 317 314 313 314 314 313 313 314 314 314 315 316 317 318 320 321 321 321 321 320 320 320 319 318 318 318 317 317 318 317 316 315 315 314 313 313 314 315 315 316 320 324 321 312 308 310 311 309 308 309 308 306 306 306 305 305 306 306 306 306 306 306 306 307 307 307 307 307 307 307 307 307 307 308 308 308 308 308 308 309 309 309 310
318 318 318 318 316 314 314 315 315 314 314 315 315 315 316 316 317 318 320 320 321 322 321 320 320 321 319 317 318 317 316 316 318 317 314 312 313 315 314 313 313 316 318 318 317 316 314 310 309 310 310 309 308 307 306 305 306 306 305 306 306 306 306 306 306 306 307 307 307 307 307 307 307 307 307 306 307 307 307 308 308 308 308 308 309 309 310
318 318 317 317 317 315 314 315 316 316 316 315 315 316 317 318 318 320 321 321 322 322 321 320 320 319 316 315 318 319 315 314 314 314 313 314 314 313 311 312 317 322 323 317 311 309 309 310 310 310 309 308 307 306 305 305 306 306 305 306 306 305 306 306 306 306 307 307 307 307 307 306 306 307 306 306 306 307 307 308 308 308 308 309 309 309 309
317 316 316 316 316 316 315 315 316 318 317 315 314 314 315 315 316 319 321 321 322 322 320 319 319 318 316 317 319 318 313 310 311 312 314 316 316 314 315 317 319 319 316 312 308 308 310 310 309 309 308 307 305 305 305 306 306 305 305 305 305 306 306 306 306 306 307 307 307 307 307 306 306 306 306 306 306 307 307 307 307 307 308 308 308 308 308
315 315 315 314 314 314 314 314 315 315 314 313 312 312 314 316 317 318 320 321 322 320 319 317 318 320 322 321 318 313 311 311 311 311 313 314 313 314 319 321 317 312 310 309 309 309 309 309 308 308 307 305 305 305 305 305 305 305 305 305 306 306 305 306 306 306 306 306 306 306 306 306 306 306 306 306 306 306 307 307 307 308 308 307 306 306 306
Wind_Speed
17 17 18 18 20 21 22 22 19 17 16 13 9 5 4 3 3 2 2 1 1 1 2 3 3 0 2 2 2 2 3 3 4 7 8 5 4 4 2 1 1 1 1 1 2 3 2 1 1 0 1 1 2 6 10 6 1 3 1 2 1 1 2 2 3 4 4 6 6 5 2 4 3 3 2 2 1 1 5 5 3 3 2 1 3 0 3
16 16 17 17 19 21 22 21 18 16 16 16 12 6 3 3 3 3 2 2 3 2 1 2 2 3 3 2 2 1 2 4 5 5 5 4 2 2 2 1 1 1 2 3 2 1 2 0 2 0 1 1 3 7 11 8 3 3 1 2 2 2 1 2 2 3 4 5 6 6 4 4 3 3 3 3 3 2 4 2 3 2 3 4 4 2 3
16 16 17 17 18 20 21 20 17 15 14 15 14 7 3 2 2 3 3 5 6 2 1 3 2 2 1 3 3 3 2 5 6 4 3 5 3 2 1 1 1 2 3 4 3 2 3 1 1 1 0 2 3 8 12 11 6 4 2 2 1 1 1 2 2 2 1 0 2 3 4 4 3 3 4 6 4 1 4 3 3 2 3 4 5 3 2
15 15 16 16 17 19 20 19 17 14 12 14 14 9 3 2 1 2 3 3 4 2 3 2 2 2 3 3 2 3 1 3 6 5 4 7 6 5 4 3 2 4 4 4 4 4 3 2 2 2 2 3 2 5 10 13 11 8 8 7 2 3 3 1 4 4 4 4 3 4 3 2 4 7 8 8 6 1 4 5 2 4 4 3 3 4 8
14 15 15 15 16 17 19 19 17 13 11 12 12 9 4 3 1 1 2 1 2 4 6 7 3 2 3 2 1 3 2 2 5 5 4 6 6 5 6 6 3 1 3 4 3 4 4 4 3 2 3 3 4 5 6 12 14 10 10 10 4 4 4 2 3 3 2 5 4 5 3 1 3 8 9 9 9 4 3 4 4 6 6 3 5 7 11
14 14 15 14 14 16 18 19 17 13 11 10 10 8 5 3 1 1 2 1 1 2 5 9 6 1 2 3 0 3 4 2 3 3 3 6 7 4 4 8 5 1 1 4 2 3 4 4 3 2 2 3 4 6 4 8 13 10 8 9 5 5 2 2 2 1 3 4 4 2 4 3 2 6 8 10 11 6 1 2 3 6 5 4 7 10 10
13 13 14 14 14 15 17 18 17 14 11 10 9 6 5 4 3 2 3 0 2 1 6 7 3 2 3 3 2 2 3 3 1 1 3 5 6 5 4 5 7 5 4 5 3 1 2 2 3 2 2 3 2 4 3 5 11 9 5 6 4 4 1 3 0 2 1 5 5 2 7 7 4 6 8 10 9 6 3 3 3 4 1 3 10 12 6
13 13 13 13 13 13 15 17 17 14 12 10 7 6 6 5 3 2 2 0 1 4 5 2 2 3 3 3 2 1 3 2 1 2 4 2 4 4 5 1 3 5 6 6 4 2 5 3 2 2 1 2 1 0 1 1 7 8 3 3 4 3 1 2 2 2 2 6 7 5 7 7 5 7 12 13 11 7 4 4 3 5 4 4 11 11 4
13 12 12 12 12 12 14 15 16 15 13 9 8 8 7 5 5 5 2 1 4 5 3 2 4 2 3 2 2 1 2 2 2 3 5 2 0 1 5 5 1 5 7 7 2 4 5 5 5 5 2 2 3 1 1 2 3 5 3 2 4 4 2 2 4 3 2 5 5 5 6 7 7 10 14 14 10 5 3 4 3 2 6 9 9 7 4
12 11 11 11 11 11 12 13 14 15 13 10 10 10 7 3 4 5 2 1 4 4 2 3 4 1 1 2 2 1 2 3 3 4 5 4 4 2 6 6 2 4 5 4 3 4 3 4 7 5 3 4 4 1 1 2 1 1 1 2 3 2 2 2 3 2 2 5 3 2 2 4 6 6 8 10 7 2 3 6 7 4 5 8 5 2 4
12 11 10 10 10 10 10 11 12 13 13 12 12 11 9 6 4 4 2 1 4 4 2 2 3 1 1 2 3 3 3 2 2 4 1 2 3 4 4 6 5 2 1 2 4 5 5 6 3 0 2 4 5 5 5 4 4 2 2 1 2 2 3 2 2 3 2 6 5 3 3 4 6 3 2 4 5 5 6 5 7 8 3 3 4 4 6
11 10 9 9 9 9 9 9 10 11 13 12 12 11 10 9 6 3 2 3 2 4 3 1 1 1 2 4 5 3 5 5 4 8 6 1 2 4 5 6 5 0 2 3 6 5 3 3 1 0 4 8 9 9 9 8 8 7 5 3 1 2 3 2 2 3 1 3 4 4 3 6 5 2 2 4 4 5 7 6 7 10 8 2 8 9 10
11 10 8 8 8 7 8 8 8 9 10 10 10 10 11 11 8 4 2 3 1 2 2 1 2 4 4 6 7 5 6 9 8 9 8 2 2 4 5 4 2 1 3 4 5 3 0 1 3 2 5 7 7 8 8 6 6 8 8 5 3 2 2 2 2 2 2 1 2 3 4 6 3 2 0 3 2 2 4 5 7 9 8 3 7 10 12
10 10 8 7 7 6 6 7 7 7 8 9 9 10 10 10 9 6 3 3 1 2 1 3 3 4 4 5 7 6 5 7 6 5 4 3 2 4 4 3 3 4 3 3 4 4 3 2 4 3 4 6 5 4 4 4 3 5 6 6 4 4 2 2 1 1 3 3 1 2 3 4 3 2 1 3 1 2 1 1 3 5 7 4 5 8 11
10 10 8 6 6 5 5 5 5 5 6 7 7 8 9 9 8 7 4 3 2 2 3 2 0 2 2 2 5 4 3 3 3 2 3 3 3 3 3 3 3 4 3 1 3 4 3 3 4 3 3 3 1 1 2 3 3 3 4 4 6 5 2 2 3 0 2 4 2 1 0 3 3 4 2 2 2 2 3 2 2 3 4 6 10 9 8
9 9 8 6 6 5 4 4 4 4 5 5 6 7 7 7 7 6 5 2 2 2 4 2 2 1 3 3 4 4 3 1 1 2 4 3 2 2 3 3 3 4 3 3 4 4 3 3 3 2 0 1 2 1 2 2 3 4 3 5 6 6 4 3 4 2 2 4 2 1 3 4 4 4 5 7 6 3 4 3 3 3 5 11 16 14 10
9 9 8 6 5 5 4 4 4 3 3 4 5 5 5 6 5 5 4 3 3 3 3 2 3 4 4 4 3 4 4 3 3 3 1 2 2 1 1 2 3 4 5 4 3 4 4 3 2 2 0 2 2 1 1 1 1 5 6 6 7 5 4 4 4 2 1 3 1 1 2 2 3 4 7 10 5 4 5 3 4 7 13 16 19 22 22
8 9 8 6 5 5 4 4 3 3 3 4 4 4 4 4 4 3 3 3 2 3 4 4 5 5 4 5 4 3 3 3 4 3 1 1 2 2 3 2 2 4 5 3 2 3 4 2 1 2 1 2 1 2 0 0 1 2 2 3 3 3 3 3 3 1 1 2 1 1 2 2 3 8 13 11 5 3 5 2 6 12 19 20 20 24 27
8 8 7 6 5 5 4 4 3 3 3 4 3 3 3 3 3 2 2 2 2 3 4 6 7 7 8 7 6 5 5 3 3 3 2 1 1 1 3 3 2 2 3 3 3 2 3 1 0 3 2 2 2 1 1 0 1 1 1 2 2 2 2 2 2 2 2 1 2 1 2 1 6 14 14 6 2 2 2 3 8 20 26 23 21 24 26
7 7 7 7 6 5 4 4 3 2 3 4 4 3 2 2 2 1 1 1 2 4 5 7 7 8 8 7 7 7 5 4 4 4 4 1 0 2 2 2 2 2 2 3 2 1 2 1 1 1 1 1 1 1 1 2 3 2 1 1 0 1 0 1 1 1 1 2 3 2 2 2 10 14 7 3 2 3 3 2 8 22 28 26 24 25 26
8 7 7 7 6 5 5 4 4 3 2 4 4 3 3 3 2 1 0 1 2 3 4 5 6 6 7 8 8 7 6 6 5 3 3 3 1 2 2 2 1 0 1 2 2 0 1 2 1 0 1 0 0 1 1 1 2 2 2 2 1 2 2 0 2 2 2 2 0 2 4 5 11 9 1 2 5 4 3 2 7 18 22 24 26 26 24
8 8 7 7 7 5 5 4 4 3 2 3 3 3 3 4 3 2 2 2 3 3 4 3 3 4 5 6 8 7 6 6 4 2 2 3 2 2 3 3 2 2 2 3 3 1 1 2 1 1 1 1 1 1 1 2 1 3 0 2 0 2 2 2 1 1 2 3 4 4 4 7 9 6 3 5 5 3 4 4 9 18 21 22 25 27 25
9 9 8 7 7 6 5 5 4 4 3 3 2 2 3 4 4 4 3 3 3 5 5 3 2 4 5 7 7 6 5 5 4 2 0 1 2 3 3 3 3 2 2 2 2 3 3 2 2 2 1 1 2 2 1 1 2 3 1 1 1 2 1 2 1 2 2 2 2 4 5 7 8 6 4 4 3 2 2 3 6 14 20 21 22 25 25
10 9 7 7 7 6 5 5 5 5 4 3 3 3 3 3 4 5 4 4 4 4 4 4 4 5 6 7 8 7 5 5 4 2 1 1 1 3 4 5 5 3 4 4 4 5 5 3 2 3 1 1 3 2 1 1 2 2 1 1 3 2 1 2 1 1 0 0 3 5 6 9 9 6 4 4 3 2 3 2 1 6 14 20 21 21 20
11 10 7 6 7 6 5 5 5 5 5 4 3 3 3 2 3 3 3 3 3 2 3 3 4 5 5 6 8 8 7 4 3 2 1 3 2 3 5 7 6 5 6 7 5 5 5 3 2 2 2 2 2 1 2 1 1 2 1 1 2 1 2 1 1 1 1 3 4 2 5 9 9 7 5 5 5 4 4 4 4 1 6 14 19 20 20
11 10 8 7 7 7 6 5 5 6 5 4 4 3 3 3 2 2 2 2 2 2 2 3 4 5 6 6 6 7 9 7 6 5 2 2 2 2 5 7 7 6 8 8 5 4 4 4 2 2 2 3 3 2 2 2 2 2 2 3 2 0 2 1 2 1 2 3 2 1 2 5 9 9 7 6 5 4 4 5 4 3 3 8 14 18 19
10 10 8 7 8 8 6 5 5 6 6 5 4 3 3 3 2 2 1 1 2 2 1 3 4 5 6 6 5 6 9 9 8 6 4 2 1 2 4 6 7 7 7 6 4 4 4 3 2 2 2 3 3 2 1 2 2 2 1 3 1 0 2 1 3 1 3 3 1 2 2 1 5 9 8 6 5 4 4 6 5 5 6 7 10 13 16
9 9 8 8 8 8 6 5 6 6 6 6 5 4 4 3 2 0 1 2 3 2 1 3 3 4 5 5 4 6 8 9 8 7 6 5 4 3 4 6 6 6 7 4 3 3 3 2 2 2 2 3 3 1 1 1 1 1 2 3 2 1 2 3 3 2 3 3 2 3 3 2 3 7 9 7 5 3 3 5 5 6 7 8 9 12 13
9 8 7 8 8 8 7 6 6 7 7 6 5 3 3 3 3 3 2 3 3 2 1 2 3 3 3 3 3 4 7 9 9 8 7 7 7 6 6 7 6 7 7 5 3 3 2 3 4 3 2 3 2 1 0 1 1 2 4 3 3 2 1 2 3 2 1 1 1 1 2 1 1 3 4 5 5 4 3 4 4 2 4 5 8 11 12
9 9 8 9 9 8 7 6 6 7 7 6 4 3 3 3 4 3 2 2 3 3 2 2 2 2 3 3 3 3 5 8 9 8 8 8 9 10 10 9 8 8 7 5 4 3 2 3 3 3 4 4 3 1 1 2 1 4 4 3 4 3 3 3 2 1 1 1 1 1 2 2 2 3 4 4 3 1 1 1 1 0 1 2 3 4 8
8 8 9 10 9 8 8 7 7 8 7 6 5 3 2 1 3 4 1 1 2 2 2 1 2 2 3 5 5 5 5 6 6 7 8 7 8 11 11 9 8 8 6 5 4 4 3 3 4 4 5 5 3 2 3 3 1 4 3 5 6 4 3 2 1 0 1 1 2 3 4 5 6 6 6 5 5 5 5 5 5 5 5 4 4 3 3
5 6 8 10 9 8 7 7 7 8 7 6 5 4 2 1 2 3 2 1 1 1 2 1 1 1 1 3 4 5 7 7 7 8 8 8 8 10 9 7 6 6 5 4 4 3 2 2 3 5 5 5 3 2 3 3 2 3 4 7 7 5 4 4 3 3 3 3 4 4 5 5 6 7 6 6 6 7 7 7 7 7 8 9 10 9 7
8 8 9 9 9 8 7 7 7 8 7 6 5 4 3 2 2 2 2 1 1 0 1 1 2 1 0 2 4 5 6 7 7 7 7 7 8 8 6 6 5 5 4 3 2 2 2 2 3 4 4 4 3 2 2 3 5 4 5 7 7 6 6 5 5 5 6 6 6 6 5 5 5 5 6 7 8 9 10 10 10 9 9 9 11 12 12
10 10 9 9 8 7 7 7 8 7 6 5 5 5 4 3 3 3 2 1 1 1 1 2 2 1 0 0 2 4 5 5 6 6 5 5 6 7 5 5 5 3 2 2 2 2 3 3 3 4 3 2 2 2 1 5 7 6 6 7 7 7 6 6 6 6 7 7 7 6 6 6 6 6 7 9 10 11 12 12 12 12 12 11 10 11 12
10 10 9 8 7 7 7 7 7 7 6 5 5 5 4 3 3 3 2 2 2 1 2 2 2 1 1 1 1 2 4 4 5 5 5 4 5 5 4 4 3 2 2 2 2 2 2 4 4 4 2 1 1 2 4 6 7 8 8 9 9 9 8 7 7 7 7 7 7 7 6 6 7 7 8 9 10 11 12 12 12 13 14 14 14 13 12
11 10 8 8 7 6 7 7 7 7 7 6 5 5 3 4 4 4 4 4 4 3 3 3 2 2 3 1 1 3 4 4 4 5 5 4 4 4 3 3 2 0 1 1 1 0 2 5 5 2 1 1 2 6 8 8 7 8 9 10 10 10 9 8 7 7 8 8 8 7 7 6 6 6 6 7 8 9 10 11 11 12 14 15 15 16 16
12 9 7 7 7 6 6 6 6 7 6 5 4 3 3 4 4 4 3 4 4 5 5 4 2 3 4 2 1 3 4 3 3 3 3 4 3 2 2 2 1 1 0 1 1 2 4 5 4 1 1 4 7 9 10 10 9 8 9 9 10 10 10 10 9 8 8 8 7 6 6 5 5 5 6 7 7 8 9 10 11 12 13 14 15 16 17
12 9 7 8 8 6 6 6 7 8 7 4 2 2 3 3 2 2 2 3 3 5 6 4 2 5 6 2 1 3 4 3 2 2 2 3 3 1 1 1 1 1 0 2 1 3 3 2 2 1 4 8 11 13 13 12 10 9 9 10 10 10 10 10 9 9 8 7 6 5 5 6 6 7 8 9 10 10 10 11 11 12 13 13 14 15 16
10 9 9 9 7 5 6 8 8 7 6 3 2 2 1 1 0 0 2 2 1 3 6 4 4 7 8 4 2 3 4 3 3 1 2 4 3 1 1 1 2 1 1 2 2 5 2 2 1 0 3 5 10 15 16 14 13 12 12 11 10 10 9 9 8 7 6 6 5 6 6 8 9 11 11 12 13 13 13 13 13 13 13 14 15 15 16
11 9 9 9 7 6 8 8 7 6 5 3 1 1 1 1 1 2 2 1 1 3 5 4 4 8 10 8 5 4 5 4 2 1 2 4 3 2 2 1 2 2 1 2 3 5 2 1 0 1 3 4 8 12 13 13 14 14 13 11 11 10 9 9 7 6 7 7 8 8 9 10 12 13 14 14 15 15 16 15 15 15 14 15 16 16 16
11 10 9 9 9 8 8 6 5 4 3 2 1 0 0 1 2 2 2 1 1 3 6 5 3 5 9 11 8 5 5 6 4 2 2 2 3 3 2 1 2 2 1 3 3 4 2 1 0 2 4 5 6 8 10 12 13 12 11 10 11 10 10 9 8 8 9 10 11 12 12 13 14 15 15 15 16 17 17 17 17 17 16 15 16 16 16
11 10 10 9 9 8 6 5 4 3 2 2 1 1 1 1 1 2 2 2 2 2 6 7 5 3 7 10 8 4 5 7 5 2 2 2 3 3 1 1 2 1 2 3 4 4 2 1 2 5 6 6 6 7 9 10 10 9 9 9 10 10 10 10 10 11 12 13 14 15 16 16 17 17 17 17 17 18 18 19 19 19 17 16 16 15 15
11 11 10 9 8 7 4 3 3 2 1 1 1 0 1 1 1 1 2 3 3 3 5 7 6 4 5 7 7 4 5 6 5 2 2 2 3 2 2 2 1 1 2 3 3 3 0 3 4 5 5 6 8 9 9 9 10 10 9 9 9 10 11 12 13 14 16 17 18 19 20 20 21 20 19 19 19 19 19 19 20 19 18 17 16 15 13
12 11 10 8 6 5 3 2 2 2 1 0 1 2 1 2 2 1 1 2 4 4 7 9 9 6 5 7 7 5 4 5 5 2 2 2 2 2 1 1 2 2 2 2 1 0 2 4 6 5 6 9 10 10 10 10 10 9 8 8 9 10 12 14 15 17 19 20 21 21 21 22 22 22 21 21 21 20 20 19 19 18 17 16 15 14 13
12 10 8 5 3 3 3 1 1 2 2 2 2 3 3 3 3 4 3 3 3 4 7 11 11 9 7 7 6 4 3 4 4 2 2 2 1 0 1 2 1 1 1 0 1 1 2 4 6 8 10 12 12 11 10 9 8 7 7 8 9 12 14 16 18 20 21 22 22 21 21 20 20 20 19 19 19 20 20 20 19 17 15 14 14 13 13
11 9 7 3 1 3 3 1 0 1 3 4 5 6 6 5 4 3 2 2 2 4 7 11 11 9 8 7 5 3 3 5 3 1 2 3 1 1 2 3 2 1 1 0 2 3 4 6 7 9 13 14 13 11 8 7 5 5 8 10 12 15 17 18 19 20 21 21 21 20 19 18 17 17 16 16 17 18 18 18 18 16 14 13 13 12 12
8 6 5 2 0 2 2 2 3 4 4 4 6 7 6 5 5 5 3 3 3 3 6 8 9 7 6 5 4 3 3 4 2 1 2 3 0 1 1 2 0 1 2 2 4 5 5 6 7 11 15 15 12 9 6 4 5 7 9 11 13 14 16 17 18 18 18 19 18 18 17 15 14 14 14 14 15 16 16 15 15 15 13 12 12 12 11
6 5 4 1 1 2 3 3 5 6 6 6 6 7 6 7 8 8 5 3 3 5 6 7 7 5 3 3 3 2 1 2 2 2 2 2 1 1 1 1 2 2 2 3 5 5 4 4 8 14 16 13 9 6 4 3 5 6 8 9 11 12 14 15 15 15 15 15 15 15 14 14 14 14 14 13 14 15 14 13 13 14 14 13 12 11 11
6 5 4 2 1 3 4 3 2 4 6 6 5 5 5 7 9 9 6 3 4 6 7 6 5 3 2 2 3 1 1 1 1 1 0 1 1 1 1 1 2 3 3 4 5 5 4 5 10 15 14 10 7 4 3 3 4 5 6 8 10 11 13 14 14 14 14 14 13 13 13 14 14 14 14 13 13 13 12 11 11 13 13 12 12 13 14
5 4 4 3 2 2 3 2 1 4 5 4 2 1 2 4 6 6 4 4 7 8 7 5 4 2 2 2 2 1 1 3 2 1 1 2 2 1 1 2 3 4 4 4 5 6 6 8 13 14 12 8 4 2 1 1 2 4 6 8 10 11 13 14 14 13 12 11 11 11 11 12 12 12 11 10 10 11 10 10 11 12 12 12 13 14 15
4 3 4 5 6 5 3 3 2 4 6 6 5 5 5 6 6 5 3 3 7 8 6 4 3 3 3 2 1 1 1 2 3 2 1 3 2 3 3 4 5 6 6 6 6 6 8 11 13 12 9 6 3 2 2 1 2 4 6 8 10 11 13 14 14 13 11 9 8 9 10 10 10 10 10 9 9 10 10 10 10 11 12 14 16 18 17
4 3 4 6 9 10 9 7 7 9 11 12 11 9 8 7 6 4 3 5 8 8 7 5 4 3 1 2 3 2 2 2 1 1 2 3 3 4 5 5 4 5 6 7 6 8 11 12 11 8 5 4 3 3 3 2 2 4 6 8 10 12 13 15 16 15 13 10 8 8 8 8 8 7 7 8 9 9 8 8 8 9 11 14 18 19 18
Wind_Direction
354 353 354 353 353 355 357 358 360 3 10 14 17 25 31 54 89 73 30 316 258 52 26 335 352 277 258 292 292 306 19 21 0 14 24 25 26 33 55 113 97 110 130 81 80 86 70 27 14 239 253 230 250 325 354 4 34 69 41 301 318 122 86 31 302 290 300 294 309 338 30 96 63 354 43 74 335 119 145 177 171 138 156 123 85 11 259
353 354 354 353 355 356 358 359 358 0 10 14 17 24 31 53 85 68 42 182 178 128 166 261 307 289 292 359 1 356 48 41 28 24 13 5 21 46 25 30 61 45 73 83 89 106 103 60 317 353 156 313 338 6 26 41 54 45 8 282 331 352 23 56 27 347 340 340 350 349 354 50 40 305 321 347 330 104 134 127 74 122 195 152 132 221 243
353 354 353 353 356 357 359 360 356 357 6 10 14 21 27 47 73 44 47 176 180 134 157 182 199 266 4 43 6 345 47 52 47 55 33 21 46 81 341 310 62 52 61 65 35 46 96 120 316 22 340 280 346 22 34 40 39 20 350 291 293 42 72 99 101 119 185 333 3 324 311 330 330 313 333 337 337 103 142 123 91 154 203 145 145 204 194
353 354 353 353 357 359 1 0 357 356 2 6 12 19 27 57 83 14 28 157 166 66 37 84 153 173 100 61 4 18 55 31 36 56 49 24 38 61 21 341 51 57 57 59 22 9 33 67 76 41 324 278 305 6 26 30 25 22 18 15 59 107 60 69 114 122 158 181 229 261 282 310 319 338 347 342 331 319 123 110 145 180 163 178 211 179 154
353 353 353 352 356 1 2 2 359 357 359 3 10 16 31 62 82 343 14 36 69 52 38 29 23 185 128 108 327 22 21 330 16 40 47 23 31 56 33 20 46 57 57 80 38 352 0 27 44 10 297 271 294 336 20 26 22 27 24 16 46 103 32 17 99 95 190 199 234 286 328 316 321 348 348 345 343 337 133 147 197 163 139 213 235 170 158
352 352 351 351 356 1 3 5 2 358 360 4 10 20 39 67 105 83 52 15 119 68 2 357 360 357 105 104 99 27 37 41 24 11 21 24 26 50 35 16 12 340 103 113 85 352 14 18 357 320 321 319 333 352 13 23 21 30 32 21 57 112 45 317 126 120 257 257 259 310 16 7 1 8 355 348 347 340 182 200 204 149 152 221 196 167 167
351 351 350 350 355 0 4 9 6 2 5 5 9 30 52 77 111 87 51 160 195 257 312 322 3 41 51 67 67 72 72 63 23 329 19 15 7 46 79 0 355 16 65 102 101 33 76 32 325 278 329 333 350 8 353 6 17 25 39 23 49 112 25 311 92 141 284 320 311 359 34 19 8 2 354 353 346 346 56 65 43 84 122 197 156 148 147
350 350 349 349 354 358 4 12 11 10 11 7 19 52 63 74 85 28 15 13 328 338 329 334 100 38 27 66 72 100 96 66 28 16 48 45 337 34 103 122 359 36 52 79 104 166 157 137 272 222 119 6 348 56 231 274 5 15 31 1 12 56 358 309 55 69 355 353 347 358 14 9 13 2 351 354 351 349 36 63 44 56 67 112 130 134 123
346 347 346 347 352 355 3 14 17 18 18 16 41 64 68 73 53 23 32 30 355 355 1 76 104 46 25 117 148 118 125 129 105 37 31 77 7 47 145 160 54 35 45 60 82 232 191 184 255 245 193 277 276 269 203 206 348 6 18 344 360 35 3 352 58 60 332 342 353 2 349 332 358 12 354 346 344 344 11 17 9 90 123 123 128 146 161
340 343 343 344 350 352 358 13 20 23 26 31 48 56 52 53 28 14 33 22 358 4 359 35 87 111 263 182 169 141 189 194 140 73 21 37 77 129 162 152 95 37 40 30 325 295 272 280 292 283 270 286 283 263 178 165 113 32 94 29 12 69 62 23 68 99 303 314 325 63 54 297 308 353 355 337 327 331 30 10 358 17 126 142 150 165 146
332 338 340 340 347 350 352 5 18 23 28 32 39 41 32 27 8 350 49 76 355 10 29 33 76 134 229 149 112 85 120 149 141 128 91 347 81 112 120 113 98 54 14 340 337 337 324 317 312 199 42 44 83 117 121 90 55 61 125 85 11 76 94 79 93 118 272 301 326 48 108 210 242 246 87 43 16 43 60 31 360 358 356 161 130 94 111
325 329 334 335 342 348 348 356 10 19 25 25 27 28 22 19 11 351 79 116 346 7 54 62 58 161 168 123 100 81 99 101 114 135 143 204 138 103 66 77 99 56 334 359 350 335 303 313 3 230 13 42 77 87 74 52 29 29 58 96 98 54 72 96 94 104 164 311 15 65 188 224 233 240 136 114 110 100 85 55 22 8 352 51 112 114 127
321 321 324 329 336 343 346 350 358 10 19 17 15 21 16 14 16 10 61 113 15 346 70 72 56 97 125 114 98 89 100 109 118 126 124 121 119 92 49 51 83 11 1 357 352 4 132 6 21 346 340 8 42 52 37 15 9 25 32 46 88 99 100 113 90 105 138 48 71 142 233 264 277 298 28 100 95 78 69 35 14 7 348 355 114 122 126
318 317 314 317 329 336 339 346 351 358 10 8 5 13 12 10 20 22 38 100 113 303 107 97 63 70 84 97 101 95 87 101 116 114 92 70 74 78 52 30 20 12 3 336 2 48 90 36 23 12 343 359 20 22 356 340 12 40 25 21 71 109 120 90 67 149 144 130 168 233 291 296 294 321 42 112 61 304 102 55 334 349 356 10 96 110 117
314 314 307 304 317 328 330 340 347 348 357 360 358 5 6 5 16 24 32 97 123 26 53 92 244 329 16 100 123 109 61 58 88 71 50 62 81 83 64 36 14 5 358 11 43 56 79 75 56 28 354 12 35 329 329 332 349 48 65 56 72 81 73 112 124 116 88 102 92 2 267 230 253 295 316 61 52 218 158 105 326 323 24 81 98 86 82
312 309 299 292 303 314 319 330 341 342 342 346 351 357 1 360 5 14 15 38 114 69 16 351 241 169 97 108 129 123 112 97 73 20 1 10 52 92 84 51 22 11 22 57 65 61 64 81 106 125 244 211 193 276 339 352 325 329 14 43 50 47 39 95 103 41 50 102 104 150 185 223 251 267 308 0 32 140 140 55 330 249 163 135 127 119 114
310 306 291 281 292 302 305 313 329 339 327 330 344 351 358 4 3 6 13 26 89 97 22 17 149 150 116 100 103 103 113 124 113 103 3 314 310 325 7 1 352 11 30 39 39 55 68 71 87 94 259 236 153 79 335 53 4 317 332 9 27 21 11 44 61 35 85 104 88 199 199 254 261 264 312 340 3 117 111 24 291 199 174 165 152 147 149
306 305 285 270 281 291 289 296 313 330 317 318 343 354 360 10 3 4 28 41 74 85 57 76 125 140 124 121 127 113 115 123 109 102 103 311 321 337 358 5 335 353 21 50 60 65 73 60 61 104 187 271 95 102 276 77 82 290 309 8 13 356 1 48 82 67 40 83 99 272 274 273 285 306 320 332 350 93 109 224 226 176 171 176 168 159 158
298 301 282 265 273 282 277 279 294 314 313 311 330 351 357 1 352 354 39 63 89 100 89 94 112 120 117 121 128 126 124 124 106 99 94 38 2 7 34 45 35 5 25 62 84 83 80 53 41 125 132 311 339 106 139 213 244 231 85 40 7 355 357 20 74 63 20 88 110 333 289 275 333 326 325 345 72 162 211 249 193 171 172 178 173 166 161
288 295 279 263 264 273 272 266 272 293 301 302 314 330 328 330 339 347 37 82 116 122 112 103 106 115 120 122 127 127 118 103 104 120 133 145 24 66 69 23 349 18 41 54 67 84 103 129 269 119 129 266 280 123 99 314 284 247 168 125 226 171 99 349 282 172 91 48 45 43 210 286 350 346 339 34 36 255 280 321 181 174 173 174 173 168 162
277 286 276 261 257 265 267 259 257 267 279 291 306 318 312 308 316 327 301 166 156 151 134 116 107 113 123 125 121 116 105 91 86 102 130 139 80 78 138 204 250 72 107 105 103 93 131 153 211 230 130 168 15 111 131 354 316 274 197 158 194 195 156 170 250 200 113 82 83 192 224 300 349 1 332 315 334 310 318 331 187 178 174 174 174 169 164
265 275 270 256 251 257 260 254 249 249 255 278 295 306 308 303 304 309 292 254 216 198 177 146 114 117 137 138 126 118 112 101 86 84 136 145 112 105 165 170 106 98 155 129 112 162 174 146 154 142 136 109 40 61 130 97 329 289 276 98 131 246 214 173 187 196 162 188 226 255 297 334 3 19 350 337 353 345 317 286 200 184 181 182 178 173 171
255 267 265 247 242 251 253 248 243 240 245 260 270 279 292 297 302 305 293 275 250 221 208 199 155 138 149 156 152 144 131 111 98 94 220 223 168 142 160 163 124 122 159 148 144 163 157 142 136 130 150 164 120 102 77 44 267 257 221 102 260 264 227 156 175 273 261 229 281 318 353 15 28 36 27 18 30 18 340 299 221 199 195 193 188 183 181
253 262 258 235 233 243 246 244 240 232 238 250 259 268 271 268 287 293 284 276 265 229 212 207 175 147 147 161 168 168 146 117 108 107 26 342 217 187 182 175 165 159 150 141 141 138 129 119 118 115 143 187 135 124 166 262 254 213 143 316 292 307 52 108 86 351 17 244 328 349 24 31 31 42 66 77 77 59 54 43 292 223 207 203 199 192 188
249 254 248 227 226 236 241 242 236 228 232 242 252 270 277 268 281 288 276 264 250 202 172 173 157 137 137 156 172 184 183 165 149 156 51 10 335 237 205 174 163 161 145 132 127 129 123 113 112 121 154 186 166 169 202 214 226 181 162 264 268 348 17 17 138 80 190 254 291 6 58 47 43 52 54 58 77 89 86 81 64 51 214 210 204 199 198
246 249 242 221 219 229 234 235 232 226 226 232 243 263 280 284 288 294 284 255 226 177 148 164 150 129 133 147 165 193 199 187 172 180 218 351 10 222 198 167 148 146 144 133 126 134 122 102 109 129 156 181 178 182 190 181 148 142 212 237 213 34 344 304 147 44 319 287 266 158 84 35 44 54 47 41 56 80 103 108 104 101 162 200 202 206 211
245 246 236 218 216 223 227 229 229 223 220 227 241 257 270 276 286 313 325 203 184 174 184 186 162 131 132 140 157 189 192 181 176 189 220 250 131 141 166 158 145 148 153 144 135 137 113 82 106 149 161 165 159 142 160 175 137 114 246 249 213 333 286 169 111 45 291 267 214 155 195 281 52 58 55 48 39 51 102 116 121 131 145 174 195 205 218
243 245 230 214 213 218 222 227 223 215 215 224 233 248 266 263 236 141 75 130 148 146 181 188 169 139 130 129 145 179 187 185 187 198 214 221 212 187 172 166 157 161 168 163 145 138 121 110 146 156 144 149 155 121 55 100 93 39 270 245 211 203 220 179 151 178 223 225 170 115 120 150 109 79 72 70 55 40 76 92 101 134 152 167 181 190 204
244 247 227 211 213 215 219 224 219 210 213 222 226 241 261 239 176 146 111 96 90 72 85 138 143 147 145 124 122 162 182 187 194 202 209 212 214 210 197 188 182 180 179 172 155 142 140 155 162 163 163 160 166 244 353 106 158 246 248 230 203 176 158 153 153 159 170 193 178 105 55 55 106 79 63 67 70 69 67 57 58 102 145 162 178 189 199
247 244 220 208 212 215 216 219 215 206 209 215 215 224 246 219 174 154 115 57 52 48 52 94 118 136 148 128 112 134 166 181 194 207 212 212 211 208 203 199 195 190 185 179 168 155 152 166 166 169 179 170 151 131 149 147 212 261 249 199 164 147 132 131 125 99 91 193 227 287 332 331 322 322 325 334 349 356 12 18 6 63 142 149 171 191 202
257 247 216 204 208 214 216 216 210 203 206 209 204 205 230 206 169 159 142 20 31 35 21 40 104 114 126 133 132 134 147 163 183 194 196 198 196 195 196 196 193 192 191 185 177 168 166 175 172 167 171 169 157 136 137 140 228 278 239 182 172 173 173 176 178 166 203 220 238 263 277 287 297 304 310 316 316 311 305 301 290 268 251 251 264 266 231
244 239 216 206 208 212 216 214 206 201 203 205 203 204 207 171 166 177 205 297 345 4 8 47 93 61 81 142 151 152 155 160 164 166 166 165 167 175 183 187 190 195 193 178 166 164 170 178 168 161 166 173 168 115 105 136 203 238 201 183 190 200 200 208 230 240 242 250 256 259 265 271 277 283 290 301 310 311 309 308 304 291 274 265 259 250 240
223 218 215 212 211 213 215 210 200 197 200 209 217 218 204 181 175 179 196 250 275 288 54 93 105 70 267 162 158 165 171 175 175 169 161 162 169 173 174 180 188 191 191 184 173 163 173 169 146 145 163 175 153 100 95 199 217 215 195 194 205 211 213 224 237 242 247 259 267 270 268 262 261 272 280 284 291 298 300 301 301 299 291 278 262 248 242
217 210 213 212 211 214 212 200 192 191 196 207 210 194 175 172 170 160 155 174 182 178 159 111 101 91 293 123 147 173 183 183 182 178 168 166 177 179 172 173 178 175 178 202 196 167 177 178 151 143 158 161 116 88 254 242 235 227 216 213 214 215 219 226 231 238 251 260 265 266 265 265 269 275 279 281 283 286 289 291 292 291 289 284 274 262 254
209 206 211 210 208 210 201 190 187 187 188 195 196 184 179 193 198 196 210 213 200 201 194 158 126 120 102 38 358 201 183 169 169 174 170 163 170 174 167 159 161 164 183 198 191 165 166 169 161 158 157 118 118 207 236 246 245 234 227 222 215 210 212 221 230 240 247 250 254 259 261 265 271 276 280 285 287 285 285 287 288 287 286 283 279 275 270
204 200 203 202 199 196 189 184 185 185 183 185 190 195 223 246 239 245 246 223 214 221 188 156 148 160 152 141 238 190 162 147 150 160 163 160 158 161 153 140 141 206 202 175 182 209 179 172 170 168 120 134 201 228 231 235 242 237 230 224 216 213 221 233 237 239 242 243 249 256 261 267 277 286 292 295 297 297 296 294 294 293 291 287 282 276 273
197 189 189 189 182 176 174 177 181 179 177 179 187 217 270 262 247 257 251 217 219 222 192 162 177 194 180 183 218 173 158 160 158 149 150 152 145 137 130 123 131 212 166 6 329 193 179 173 164 154 206 216 231 241 238 236 243 244 234 228 224 225 235 244 242 238 239 240 242 248 256 265 276 288 296 299 301 304 305 303 302 301 299 294 289 282 276
185 178 178 174 167 160 161 167 171 171 172 182 224 294 288 248 229 248 222 196 217 219 198 187 216 203 189 187 185 168 168 167 145 128 147 153 143 121 111 113 134 160 228 309 250 173 157 134 117 167 245 247 247 251 250 246 243 238 229 227 230 231 235 239 238 234 232 230 230 239 257 277 288 295 300 300 300 302 305 306 305 304 300 296 293 288 280
177 174 171 165 161 159 159 160 165 173 185 207 257 289 264 210 185 253 206 194 217 204 196 210 227 203 190 187 189 185 176 149 108 88 172 171 172 201 186 160 158 136 44 306 201 168 162 338 358 278 280 264 251 253 253 245 234 230 229 230 231 228 225 227 231 237 243 250 258 268 280 291 296 299 300 299 298 298 299 300 301 301 298 295 291 289 284
177 171 168 169 163 153 152 154 162 173 181 189 218 253 243 230 224 199 172 150 288 211 200 213 222 204 199 205 211 201 188 173 148 136 169 174 177 162 130 138 155 135 58 286 200 165 163 310 340 280 275 250 242 249 247 234 225 227 229 227 223 218 218 224 233 246 256 263 269 276 283 287 290 292 293 292 291 290 291 293 296 296 294 291 288 286 286
176 167 168 171 160 147 145 146 150 160 158 138 130 232 244 250 236 204 148 97 293 224 200 191 180 191 204 209 207 195 190 191 179 144 137 162 161 144 127 126 133 123 269 255 188 144 113 35 259 255 251 237 233 235 227 216 216 218 219 218 216 215 220 230 238 246 253 257 261 265 270 274 276 280 282 282 281 282 284 286 288 290 290 290 287 284 282
173 167 166 164 155 149 148 140 133 142 142 115 91 294 287 281 262 233 203 217 242 209 189 188 183 174 192 198 195 180 180 186 179 140 120 170 172 157 136 60 70 85 245 209 150 103 52 339 255 258 249 229 216 212 204 200 202 202 204 210 213 218 229 240 246 250 255 258 262 265 268 269 269 269 270 271 272 274 275 277 279 282 286 288 286 283 280
167 161 158 153 148 147 148 148 147 140 83 66 75 329 308 300 278 239 232 236 231 194 176 181 175 148 155 175 174 157 162 177 177 144 123 163 165 132 79 48 57 202 201 159 113 78 120 208 233 252 230 198 190 188 186 189 196 199 205 215 222 231 243 252 257 260 263 266 270 272 273 273 272 270 268 266 264 264 266 268 271 276 280 282 281 279 277
161 157 153 151 147 142 142 168 169 155 141 244 176 179 229 260 247 218 211 214 206 191 182 181 177 167 158 163 161 151 153 168 171 158 146 155 137 97 73 239 219 184 142 115 91 128 223 233 245 236 193 176 181 185 187 195 203 207 215 229 241 252 261 267 272 276 278 279 280 280 279 278 277 274 270 265 261 259 260 262 265 270 274 275 275 274 272
160 157 149 139 140 154 163 185 193 177 201 216 186 174 186 200 199 196 196 197 192 187 187 186 182 171 156 154 157 159 153 154 158 173 167 136 96 58 211 207 194 121 96 67 288 269 263 260 246 217 193 183 182 186 193 202 211 224 242 258 270 281 287 290 291 291 290 289 289 287 285 284 281 277 272 266 262 259 257 257 259 265 270 271 270 267 262
164 165 151 130 161 187 177 174 355 189 197 203 202 203 206 208 206 204 209 225 223 196 186 186 181 167 154 155 159 161 151 147 152 181 148 122 110 241 190 149 105 74 91 277 261 245 246 252 236 207 192 185 181 183 194 210 232 262 280 289 296 301 302 301 299 296 295 294 292 289 289 288 286 281 274 267 261 258 258 256 256 257 262 266 267 261 253
170 168 152 133 204 193 182 211 228 228 229 229 229 233 241 253 269 283 287 265 242 207 183 181 176 166 159 159 160 168 168 155 153 170 144 133 160 273 116 99 145 202 181 215 239 236 245 253 224 190 180 180 183 188 202 231 273 294 303 308 310 309 308 305 301 299 299 298 295 290 288 288 286 281 275 267 261 256 255 254 250 246 249 259 264 257 247
171 164 162 176 185 172 190 228 239 242 248 254 264 274 276 274 279 289 297 274 228 206 190 179 169 161 165 165 157 154 143 136 154 203 188 137 86 2 38 17 270 232 191 201 218 226 248 244 198 180 176 178 186 197 220 272 300 310 318 323 322 320 316 311 308 307 306 304 299 294 290 288 286 283 280 275 266 256 250 248 247 245 246 253 256 246 233
172 168 179 202 191 203 222 237 267 275 269 264 269 275 271 269 278 287 292 272 229 209 196 181 162 147 151 151 133 105 116 159 174 238 115 119 143 206 169 185 244 254 243 221 218 232 247 212 181 175 177 181 187 206 255 296 317 332 340 340 338 335 330 323 318 316 313 308 302 296 292 290 289 286 282 277 268 259 251 246 244 243 243 245 243 233 222
190 197 208 207 205 237 238 215 235 285 284 278 274 291 289 287 293 302 299 252 218 200 189 182 168 139 116 106 76 10 269 208 169 115 126 189 197 181 167 205 228 233 229 224 228 237 224 189 175 174 178 182 190 220 264 329 10 4 358 354 352 349 344 338 331 326 320 314 308 303 300 299 296 290 283 274 264 253 243 235 233 234 235 233 229 220 208
205 221 229 221 217 222 218 198 219 263 274 280 295 314 316 304 303 318 318 235 201 186 175 171 152 100 75 84 134 190 190 167 138 124 199 219 181 144 171 224 231 225 226 232 231 215 193 180 177 178 180 182 189 189 161 116 46 17 12 10 7 4 1 358 356 353 346 336 327 321 317 312 304 292 279 263 249 238 234 232 230 229 226 220 212 204 193
204 211 232 232 230 232 238 247 259 264 267 275 287 299 303 301 304 313 289 223 200 191 185 171 141 105 96 183 181 158 139 134 130 174 225 225 193 180 199 221 232 237 240 234 209 182 174 175 176 178 177 174 170 161 151 129 61 34 27 22 20 19 17 15 14 12 5 356 345 339 335 330 321 305 280 254 240 236 237 234 225 222 221 213 201 191 182